Location: Hylvaty SDH
(49.9612°N, 16.4057°E)
Time: 21:13:18
(UTC+01:00)

Vanguard 1 Rocket - Pass Details

Date: 07 October 2020
Orbit: 656 x 4221 km, 34.3° (Epoch: 30 October)

Event Time Altitude Azimuth Distance (km) Brightness Sun altitude
Rises 19:38:04 0° 258° (WSW) 4,933 12.6 -13.5°
Reaches altitude 10° 19:40:57 10° 250° (WSW) 4,312 11.9 -14.0°
Maximum altitude 19:52:34 42° 185° (S) 3,661 10.4 -15.8°
Enters shadow 20:09:34 15° 128° (SE) 6,583 11.2 -18.5°
Drops below altitude 10° 20:12:20 10° 125° (SE) 7,124 - -18.9°
Sets 20:18:58 0° 120° (ESE) 8,382 - -20.0°
